Manitowoc, WI

5:08 AM CDT on May 28, 2017 (GMT -0500)
Manitowoc County

Weather History for KMTW - September, 2013

Change the Weather History Date:

Wednesday, September 11, 2013

  Actual Average Record
Temperature  
Mean Temperature 72 °F -  
Max Temperature 79 °F 73 °F 88 °F (1978)
Min Temperature 66 °F 52 °F 33 °F (1969)
Cooling Degree Days 8    
Growing Degree Days 22 (Base 50)    
Moisture  
Dew Point 65 °F    
Average Humidity 77    
Maximum Humidity 97    
Minimum Humidity 58    
Precipitation  
Precipitation 0.00 in - - ()
Sea Level Pressure  
Sea Level Pressure 30.01 in    
Wind  
Wind Speed 5 mph (West)    
Max Wind Speed 12 mph    
Max Gust Speed 21 mph    
Visibility 10 miles    
Events Rain , Thunderstorm    
Averages and records for this station are not official NWS values.
T = Trace of Precipitation, MM = Missing Value Source: NWS Daily Summary

Daily Weather History Graph

Daily Weather History Graph

Search for Another Location

Airport or City:

Trip Planner

Search our weather history database for the weather conditions in past years. The results will help you decide how hot, cold, wet, or windy it might be!

Date:

Astronomy

Sep. 11, 2013 Rise Set
Actual Time 6:25 AM CDT 7:08 PM CDT
Civil Twilight 5:56 AM CDT 7:37 PM CDT
Nautical Twilight 5:21 AM CDT 8:11 PM CDT
Astronomical Twilight 4:45 AM CDT 8:47 PM CDT
Moon 1:07 PM CDT (9/11) 10:49 PM CDT (9/11)
Length of Visible Light 13h 40m
Length of Day
12h 42m
Waxing Crescent, 39% of the Moon is Illuminated
Sep 11
Waxing Crescent
Sep 12
First Quarter
Sep 19
Full
Sep 26
Last Quarter
Oct 4
New

Hourly Weather History & Observations

Time (CDT) Temp. Dew Point Humidity Pressure Visibility Wind Dir Wind Speed Gust Speed Precip Events Conditions
12:25 AM 71.6 °F 66.2 °F 83% 29.97 in 10.0 mi Variable 3.5 mph - 0.00 in Rain , Thunderstorm Light Rain
12:56 AM 70.0 °F 66.0 °F 87% 30.01 in 10.0 mi Calm Calm - 0.00 in Thunderstorm Overcast
1:29 AM 69.8 °F 66.2 °F 88% 29.99 in 10.0 mi North 4.6 mph - 0.00 in   Overcast
1:56 AM 69.1 °F 66.9 °F 93% 30.01 in 10.0 mi ESE 3.5 mph - 0.00 in   Overcast
2:56 AM 68.0 °F 66.9 °F 96% 30.01 in 7.0 mi Calm Calm - N/A   Overcast
3:56 AM 66.9 °F 66.0 °F 97% 30.01 in 4.0 mi Calm Calm - N/A   Mostly Cloudy
4:56 AM 68.0 °F 66.0 °F 93% 30.01 in 10.0 mi SSW 8.1 mph - N/A   Scattered Clouds
5:56 AM 68.0 °F 66.0 °F 93% 30.02 in 10.0 mi WSW 4.6 mph - N/A   Clear
6:56 AM 68.0 °F 66.0 °F 93% 30.04 in 10.0 mi West 4.6 mph - N/A   Scattered Clouds
7:56 AM 71.1 °F 64.9 °F 81% 30.07 in 10.0 mi WSW 10.4 mph 20.7 mph N/A   Clear
8:56 AM 71.1 °F 64.9 °F 81% 30.03 in 10.0 mi West 10.4 mph - N/A   Clear
9:56 AM 73.9 °F 66.0 °F 76% 30.02 in 10.0 mi WNW 11.5 mph - N/A   Clear
10:56 AM 75.9 °F 66.0 °F 71% 30.03 in 10.0 mi West 10.4 mph - N/A   Clear
11:56 AM 75.9 °F 64.0 °F 67% 30.04 in 10.0 mi WNW 6.9 mph - N/A   Partly Cloudy
12:56 PM 78.1 °F 64.9 °F 64% 30.04 in 10.0 mi WSW 10.4 mph - N/A   Partly Cloudy
1:56 PM 79.0 °F 63.0 °F 58% 30.03 in 10.0 mi West 8.1 mph - N/A   Clear
2:56 PM 78.1 °F 63.0 °F 60% 30.03 in 10.0 mi WSW 6.9 mph - N/A   Clear
3:56 PM 78.1 °F 62.1 °F 58% 30.02 in 10.0 mi West 8.1 mph - N/A   Clear
4:56 PM 79.0 °F 64.0 °F 60% 30.01 in 10.0 mi West 6.9 mph - N/A   Clear
5:56 PM 78.1 °F 66.0 °F 66% 30.00 in 10.0 mi WSW 6.9 mph - N/A   Clear
6:56 PM 75.0 °F 66.0 °F 73% 29.99 in 10.0 mi WSW 6.9 mph - N/A   Clear
7:56 PM 73.0 °F 64.9 °F 76% 29.98 in 10.0 mi WSW 6.9 mph - N/A   Clear
8:56 PM 73.9 °F 64.9 °F 73% 29.99 in 10.0 mi West 9.2 mph - N/A   Clear
9:56 PM 73.9 °F 64.0 °F 71% 29.98 in 10.0 mi West 9.2 mph - N/A   Clear
10:56 PM 72.0 °F 62.1 °F 71% 30.01 in 10.0 mi NNW 10.4 mph - N/A   Partly Cloudy
11:56 PM 69.1 °F 60.1 °F 73% 30.01 in 10.0 mi North 6.9 mph - N/A   Scattered Clouds